Wind_Speed
56 56 55 50 49 52 53 53 53 54 55 54 53 55 56 57 57 57 58 57 57 57 57 58 58 57 56 54 52 52 52 52 51 50 49 49 49 49 48 48 48 47 46 45 44 44 43 42 42 42 43 43 42 40 38 37 37 39 41 42 42 42 42 41 40 40 39 37 36 36 36 37 38 41 44 48 50 50 50 49 49 48 48 48 49
52 53 54 52 52 53 53 53 53 53 55 56 55 55 55 56 57 58 58 57 58 59 59 59 59 58 58 57 55 54 53 53 51 50 50 50 50 50 50 49 48 47 46 45 45 44 44 43 44 45 45 45 43 40 39 38 37 38 40 42 43 43 43 44 43 43 42 41 40 39 38 38 39 40 42 45 48 50 52 52 51 50 50 50 51
53 54 56 56 56 56 55 55 55 55 56 57 57 57 57 57 58 58 57 55 55 56 57 57 56 54 53 53 52 49 49 49 48 49 50 51 52 51 51 50 49 47 46 45 45 44 45 45 46 46 46 44 42 40 39 38 37 38 39 42 44 45 44 44 44 45 45 45 44 43 42 41 41 41 42 43 45 48 50 52 53 53 53 52 52
56 57 59 59 59 58 57 57 57 58 58 58 58 59 59 59 59 59 58 56 54 54 55 56 55 54 53 52 51 50 48 48 48 50 52 54 55 55 54 53 52 50 49 48 47 48 49 49 49 48 46 44 41 40 39 39 38 38 39 40 43 45 46 46 46 46 46 47 47 46 46 45 44 44 43 44 45 46 48 50 52 54 55 55 54
56 57 58 59 60 59 58 58 60 60 61 60 60 60 60 60 60 60 60 60 60 61 61 62 62 61 60 58 57 55 54 54 55 55 57 58 58 58 57 56 55 54 53 52 53 54 54 53 51 49 47 44 41 40 40 40 40 40 41 42 43 44 47 48 49 49 48 49 49 49 49 49 48 48 47 46 47 47 48 49 51 52 54 56 57
56 57 58 60 61 61 61 61 62 63 63 62 62 62 61 60 60 60 60 62 63 64 64 65 65 64 63 61 59 58 57 58 59 59 60 61 61 61 60 59 57 56 56 56 57 56 54 53 51 48 47 45 43 42 41 42 42 43 44 45 46 46 47 48 50 50 51 51 51 52 52 52 52 52 51 50 50 50 50 50 51 52 53 55 56
58 59 60 62 63 64 63 63 63 63 63 62 62 62 62 61 61 61 61 63 64 65 65 66 66 65 63 61 60 59 59 60 61 62 64 65 64 65 64 62 59 56 57 57 56 53 51 49 48 47 46 45 44 43 42 43 44 45 45 46 47 48 48 49 50 51 52 52 52 54 55 56 56 55 55 54 54 53 53 53 53 53 54 55 56
60 60 61 62 63 64 65 65 64 64 63 62 62 61 61 61 61 61 62 63 64 65 66 66 67 66 65 64 63 63 63 64 66 67 68 69 68 66 65 62 56 53 53 53 50 48 47 46 46 45 45 44 44 43 43 44 44 43 43 44 45 46 47 48 49 51 52 53 53 55 57 58 59 58 58 58 58 57 57 56 56 56 56 56 57
61 61 62 62 63 64 65 65 65 65 64 64 63 61 60 60 60 61 61 62 63 63 63 64 66 67 66 65 64 64 64 66 67 67 67 68 68 65 63 60 55 50 47 47 46 45 45 44 44 44 44 43 43 43 43 43 43 42 42 43 45 46 46 47 47 48 49 50 52 54 57 60 61 61 61 61 60 60 60 60 60 60 60 59 60
64 64 64 64 65 65 66 66 66 65 65 65 64 61 59 58 59 59 60 61 62 63 63 64 65 65 64 63 62 61 61 62 63 63 63 65 65 64 62 60 57 52 48 44 43 43 43 43 44 45 45 44 44 44 43 44 44 44 44 45 46 47 48 47 47 46 45 46 48 51 55 59 61 62 63 63 63 63 63 63 63 63 64 64 64
67 67 67 67 67 67 67 67 67 66 66 65 63 61 59 57 57 57 56 56 59 59 60 62 63 63 62 61 60 59 59 60 60 59 60 61 61 61 60 60 60 58 55 49 44 42 43 45 45 46 46 47 46 46 45 46 47 47 47 47 48 49 49 49 49 48 47 47 48 49 53 56 58 59 61 63 65 65 65 65 66 66 67 67 68
69 70 70 70 69 69 69 68 68 67 66 66 64 62 60 58 58 56 53 53 55 56 55 56 58 60 60 61 62 61 60 59 58 57 57 58 58 59 59 59 59 61 61 58 52 46 45 46 47 47 47 48 48 48 47 47 48 49 49 49 49 50 50 51 52 52 52 51 51 51 54 56 56 56 58 60 63 65 66 67 68 68 69 70 71
71 71 71 71 71 71 70 70 69 68 67 67 66 64 62 61 62 61 59 59 60 60 60 59 59 60 60 60 61 62 60 58 56 56 56 56 57 57 58 59 60 61 63 64 62 57 51 49 48 48 48 49 49 50 49 49 49 50 51 51 50 51 51 52 53 54 54 54 53 52 54 57 57 57 57 58 60 62 64 66 68 69 70 71 72
72 72 72 72 72 72 71 71 70 69 68 67 67 66 65 64 64 64 64 66 67 66 66 66 66 65 64 63 63 62 62 60 58 57 56 56 57 57 58 59 60 61 63 64 66 65 62 57 53 51 50 51 51 52 52 51 51 52 52 53 52 53 53 53 53 54 54 54 53 53 54 57 58 59 58 59 60 61 63 65 67 68 70 71 73
72 72 71 71 72 72 72 72 71 71 70 69 68 67 66 66 66 65 65 67 69 69 69 70 70 69 68 68 67 66 64 63 61 59 58 58 58 59 59 60 61 62 63 64 65 67 68 66 63 59 55 54 53 53 53 53 53 54 54 55 55 55 55 55 55 54 54 55 55 56 56 58 59 60 60 60 62 62 63 65 67 68 70 71 73
68 69 69 69 69 70 70 71 71 71 71 70 69 69 68 68 68 66 65 66 68 70 71 72 72 72 71 70 69 68 67 66 64 61 60 60 60 60 61 62 63 64 64 65 66 67 68 70 70 68 65 61 58 56 56 56 56 56 57 57 58 57 57 56 56 56 56 57 58 59 59 60 61 61 61 62 63 64 65 66 68 69 71 72 74
62 63 64 64 65 66 67 68 69 70 71 71 70 70 71 70 68 66 64 66 68 70 72 74 74 74 73 72 70 70 70 68 66 64 64 63 63 63 63 64 64 66 67 68 69 70 71 72 72 72 71 69 66 64 62 61 60 60 59 60 60 59 59 58 58 58 59 60 61 62 62 63 63 64 64 65 66 67 68 69 70 72 73 74 75
57 58 59 60 61 62 63 64 66 67 68 69 70 70 71 71 69 67 66 67 68 70 74 77 76 73 72 72 72 72 72 71 69 68 67 67 66 66 66 67 67 68 69 70 71 72 73 73 73 73 72 72 72 71 70 68 67 65 64 63 63 62 62 62 62 63 64 65 65 66 66 66 66 67 67 68 69 71 72 73 75 75 76 76 77
56 57 58 59 59 60 61 61 63 64 65 66 67 68 69 69 69 68 68 69 70 72 76 79 78 73 72 74 74 73 73 73 73 72 71 70 69 69 70 70 70 71 72 72 73 73 73 74 74 73 73 73 72 72 72 72 71 69 68 67 66 66 66 66 66 67 68 68 69 69 70 70 70 70 71 71 72 73 74 75 76 77 78 79 79
59 59 59 59 59 60 60 61 62 62 63 64 65 66 67 68 68 67 68 69 71 73 75 77 77 75 74 75 76 74 75 76 75 74 74 72 72 72 72 72 72 73 73 74 74 74 74 74 74 74 74 73 73 73 73 73 72 71 70 70 70 70 70 70 70 71 72 72 73 73 73 73 73 73 74 74 74 74 74 75 76 77 78 79 80
63 62 62 61 61 61 62 63 63 62 62 62 63 64 65 66 67 67 67 68 69 71 73 76 76 76 75 75 75 75 76 76 75 75 74 74 73 73 73 73 72 73 73 73 73 73 73 74 74 74 74 73 73 74 74 73 73 72 72 72 72 72 73 73 74 75 76 76 77 77 77 77 77 77 76 75 74 74 74 74 75 75 76 77 78
66 66 66 65 65 64 64 64 64 64 63 63 63 64 65 65 66 67 67 67 67 69 73 75 75 74 74 73 73 75 75 75 74 74 73 73 73 72 72 72 72 72 72 72 72 72 72 72 73 73 73 73 73 73 74 73 73 72 73 73 74 74 75 76 76 77 78 79 80 81 81 81 80 79 77 76 74 73 73 73 73 73 73 74 74
69 69 69 69 69 69 68 68 68 67 67 67 66 66 67 67 67 67 67 67 67 69 72 75 74 72 72 72 73 74 74 73 73 73 72 72 71 71 71 71 71 72 72 72 71 71 72 72 73 73 73 73 73 73 73 73 73 73 74 75 76 77 77 78 78 79 80 81 82 83 83 82 80 78 76 74 73 72 72 71 71 70 70 70 70
71 71 72 72 73 73 72 72 72 72 72 71 70 70 71 70 70 69 70 70 70 71 73 75 74 73 73 73 74 74 74 74 74 73 72 71 71 71 71 71 72 72 72 72 71 71 72 73 73 74 74 73 73 73 74 74 74 75 76 77 78 79 80 80 81 82 83 84 84 84 83 81 78 76 74 73 72 71 69 68 68 68 67 67 67
74 74 75 75 76 77 77 76 76 76 76 76 75 75 75 74 74 73 73 73 74 74 76 77 77 76 76 76 76 76 77 78 77 74 73 72 72 72 72 73 73 73 73 73 73 74 74 75 75 75 75 75 75 75 75 76 76 77 78 79 80 81 82 83 84 85 86 86 85 84 82 79 77 76 74 73 72 70 68 66 66 66 65 65 64
75 76 76 78 79 80 80 80 80 80 80 80 80 79 79 78 78 78 77 77 78 78 79 80 80 80 80 80 80 80 81 81 80 77 75 74 74 74 74 75 75 75 75 76 76 77 78 78 78 78 78 78 78 78 78 78 78 79 80 81 82 84 84 85 86 86 86 86 84 83 81 79 77 75 73 71 69 67 66 65 64 64 64 62 61
75 76 77 78 79 81 81 82 83 83 83 83 83 83 83 83 82 82 82 81 81 82 82 82 82 83 83 83 83 84 85 84 82 80 78 77 77 76 76 76 76 77 77 78 79 80 81 81 81 81 81 81 81 81 81 81 81 81 82 83 85 85 86 86 87 86 86 85 84 82 80 78 75 72 70 68 66 65 64 64 63 62 61 59 58
74 75 77 78 79 80 82 82 83 84 84 83 84 85 85 86 86 86 84 84 85 86 86 86 85 86 86 86 87 87 87 87 85 83 81 80 79 79 78 78 77 78 78 79 81 82 82 82 82 82 83 83 83 83 83 83 83 84 84 85 86 87 87 87 87 87 86 84 83 80 77 74 71 68 66 64 64 64 64 62 60 58 57 57 56
76 76 78 79 81 82 83 83 84 84 84 83 83 84 85 86 87 87 86 87 88 88 88 88 88 89 89 89 88 88 89 90 89 86 83 81 80 80 79 79 78 79 80 81 82 83 83 84 84 84 84 85 85 85 85 85 85 86 86 87 87 88 88 88 87 86 84 82 80 76 73 69 66 63 62 62 63 63 61 59 56 55 54 54 53
77 78 79 80 82 83 84 84 84 85 85 84 84 83 83 83 85 86 87 88 89 89 89 89 89 90 90 90 88 88 90 92 92 87 82 79 79 79 78 78 78 80 81 83 83 84 84 85 85 86 86 86 86 86 86 86 86 86 87 87 87 87 87 86 85 83 81 78 74 70 66 63 60 59 60 61 62 60 58 55 53 52 51 50 49
75 77 78 79 80 82 83 82 82 83 84 84 84 84 83 83 83 83 85 87 88 88 89 90 90 90 90 89 88 89 90 92 91 86 80 77 76 76 76 76 78 80 82 82 82 82 83 84 85 86 86 86 86 85 85 85 85 85 85 85 84 84 83 82 80 78 74 71 67 63 59 57 56 58 60 60 58 56 54 52 50 50 48 47 46
70 72 73 74 75 77 78 78 79 79 80 82 82 82 82 83 83 83 83 84 85 87 88 89 90 91 90 89 89 89 89 89 88 84 79 75 74 74 74 76 78 80 81 81 81 82 82 83 83 84 84 84 84 83 82 82 81 81 81 80 79 78 77 75 73 70 66 63 59 56 53 53 55 57 58 56 54 52 50 49 48 47 46 44 43
64 65 67 67 68 69 70 71 72 72 73 75 77 78 80 81 82 83 83 83 83 84 84 85 86 88 89 90 90 90 88 87 85 82 78 74 72 73 74 76 79 79 80 80 81 81 81 81 81 81 81 81 80 79 79 78 78 77 76 75 74 72 70 68 65 62 59 55 53 51 50 52 54 55 53 51 49 48 48 47 46 45 44 42 41
61 62 63 64 64 63 64 65 66 65 65 66 68 71 73 75 76 79 81 81 81 81 80 80 81 84 86 87 88 88 87 85 83 79 74 71 70 71 73 76 79 79 79 79 80 80 80 80 79 79 78 77 76 75 75 75 74 72 71 69 67 65 63 61 58 55 52 50 48 48 49 51 52 50 48 46 46 46 46 45 44 43 42 41 40
60 60 60 61 61 61 61 61 62 61 61 61 62 65 67 68 70 72 74 76 77 76 75 75 77 78 79 80 81 82 82 80 77 73 69 67 67 69 73 76 77 76 75 76 76 77 77 77 76 75 74 72 71 70 70 69 68 66 64 63 61 59 57 55 52 50 48 46 45 46 48 48 47 46 45 44 44 44 43 43 42 41 40 40 39
58 57 57 57 58 59 59 59 59 59 59 59 60 62 63 65 66 67 69 70 71 71 71 72 73 72 73 74 74 73 73 71 67 63 62 63 65 69 72 72 71 69 69 70 71 72 72 72 71 70 68 66 65 64 63 62 61 60 59 57 55 54 52 50 47 46 45 44 43 44 45 44 43 42 43 43 42 42 41 40 40 39 38 38 37
54 53 53 53 53 54 55 55 56 56 57 58 58 59 60 62 63 64 66 67 67 68 70 70 69 69 71 71 69 66 64 60 56 55 57 60 64 66 67 65 63 63 64 64 65 66 66 66 64 63 61 60 59 58 57 57 56 55 53 52 51 49 47 45 44 43 42 42 41 42 41 40 40 40 40 40 40 40 39 38 37 36 36 36 35
50 49 49 48 48 48 48 49 50 51 53 55 56 57 58 60 60 61 63 64 65 67 68 68 67 68 70 69 65 59 55 52 51 53 56 59 62 62 61 59 59 59 59 59 60 60 60 59 58 56 55 55 54 53 53 52 51 50 49 48 47 45 44 42 41 40 40 40 40 39 38 37 37 38 38 37 37 37 36 35 34 33 33 32 32
47 46 46 45 44 44 44 43 44 46 48 50 52 54 56 58 59 60 61 62 63 64 65 65 65 67 68 66 61 54 49 47 49 52 55 58 60 59 58 57 56 56 56 56 56 56 55 54 52 52 51 51 50 49 49 48 47 46 46 45 44 43 41 39 38 38 38 38 38 37 35 34 35 36 36 35 34 33 33 32 31 30 29 28 28
43 43 42 42 41 41 40 40 40 41 43 44 46 49 51 54 56 57 58 60 61 61 62 62 63 64 64 62 56 48 43 43 47 51 55 57 58 57 56 54 54 54 53 53 52 52 51 49 48 48 48 48 47 46 46 45 44 43 43 42 41 40 39 37 36 36 37 36 35 34 33 32 33 34 33 32 31 30 29 29 28 26 26 25 25
39 39 39 39 38 38 38 38 38 38 39 40 42 44 47 49 52 53 55 56 58 59 60 60 59 60 60 56 50 44 42 45 49 53 55 56 56 55 53 52 52 52 51 50 49 48 47 46 46 46 46 45 44 44 43 42 41 41 40 40 39 38 36 35 34 34 35 35 33 32 31 31 31 31 30 29 28 27 26 25 24 23 23 23 23
36 36 36 35 35 35 35 35 35 35 35 36 37 39 42 44 47 48 50 52 54 56 57 57 57 57 54 48 43 43 45 48 50 51 52 53 54 52 51 51 50 50 49 48 47 45 44 44 44 44 43 43 42 41 40 40 39 39 38 37 37 36 34 33 33 33 34 33 31 30 30 29 28 28 27 26 25 24 23 22 21 20 20 21 21
33 33 32 32 31 32 32 32 32 32 33 33 34 36 38 40 42 44 46 47 49 52 53 54 53 51 46 39 37 41 45 47 47 49 51 52 52 50 49 50 49 47 46 46 44 42 42 42 42 41 41 40 40 39 38 38 38 37 36 36 35 34 33 32 32 32 32 31 30 29 27 27 26 25 24 23 22 21 20 20 19 19 19 20 21
31 30 29 28 28 28 29 29 29 30 30 31 32 34 35 37 39 40 42 43 45 47 49 49 48 44 38 35 37 42 45 46 46 48 50 50 49 48 49 48 46 44 44 43 41 41 41 41 40 39 39 38 37 37 37 36 36 36 35 35 34 33 32 31 31 31 30 30 28 27 25 24 23 23 22 20 19 19 19 19 18 18 19 20 20
29 28 27 26 26 25 26 26 26 27 28 29 30 31 32 33 35 36 38 39 40 42 43 43 42 38 36 36 40 43 45 45 46 48 48 48 47 47 46 44 42 42 41 41 40 41 40 39 38 38 37 36 36 36 36 35 35 35 34 34 33 32 31 30 30 29 29 28 27 25 23 22 21 21 19 18 17 18 18 18 18 17 18 19 19
26 25 25 24 24 23 23 23 24 24 25 26 27 28 29 30 31 33 34 36 37 38 39 39 38 37 37 39 42 43 45 45 46 47 47 46 46 45 43 41 40 40 40 40 40 40 39 38 37 37 36 36 35 35 35 34 34 34 33 33 32 31 30 29 29 28 27 26 25 23 22 21 20 19 18 17 17 17 17 17 17 17 17 18 18
24 23 23 22 22 21 21 21 21 22 22 23 24 25 27 28 29 30 32 33 34 35 36 37 37 37 38 40 41 42 43 43 44 44 45 44 44 42 40 39 39 40 40 40 40 38 37 37 37 36 36 35 35 34 34 34 34 33 33 33 32 30 29 28 27 27 26 25 23 22 21 20 19 18 18 17 17 17 17 16 16 16 16 16 16
22 22 21 20 20 20 19 19 19 19 20 21 22 23 24 26 27 28 30 31 32 33 34 35 36 36 37 38 40 40 41 41 42 42 43 42 41 39 38 38 39 40 40 40 38 37 37 37 37 36 36 35 34 34 34 34 34 34 33 32 31 30 29 27 26 26 25 24 23 21 20 19 18 18 18 17 17 17 17 16 16 15 15 14 14
21 20 20 19 19 18 18 17 17 17 18 19 20 21 22 24 25 26 28 29 30 31 32 32 33 34 35 36 37 38 39 39 40 40 40 39 39 38 38 39 40 41 40 39 38 38 37 37 36 36 35 35 34 34 34 34 34 34 33 32 30 29 28 27 26 25 25 24 22 21 20 19 18 18 18 18 18 18 18 17 16 16 15 14 13
20 19 18 18 18 17 17 16 16 16 16 17 18 19 21 22 23 24 26 27 28 29 30 30 31 32 33 34 35 37 37 38 38 39 38 38 38 39 40 41 41 41 40 39 38 38 37 37 36 36 35 35 35 35 35 35 35 34 33 32 30 29 28 27 26 25 24 24 22 21 20 19 19 19 19 19 18 19 18 18 18 17 16 14 13
19 18 17 17 17 16 16 16 16 16 16 16 17 18 20 21 22 23 25 26 27 28 29 30 30 31 32 33 35 36 36 37 37 38 38 39 39 40 40 41 40 40 39 39 38 38 37 37 36 36 36 36 36 35 35 35 35 34 33 32 31 29 27 27 26 25 25 24 22 21 21 20 20 20 20 20 19 19 19 19 19 18 16 15 14
Wind_Direction
254 254 254 255 259 262 263 264 265 265 265 266 267 270 273 274 275 276 277 278 279 281 282 283 284 285 286 285 284 283 282 282 281 280 279 278 278 277 277 277 277 277 276 275 275 274 276 278 280 283 287 290 289 287 282 277 272 267 263 261 260 259 257 257 256 255 254 254 254 255 255 256 255 254 252 252 252 252 252 251 250 248 247 245 245
257 256 254 255 259 260 260 261 263 264 265 265 266 268 270 272 273 275 276 276 277 278 280 281 283 285 287 288 288 288 287 285 284 282 281 280 280 280 280 281 281 281 281 280 280 281 283 284 286 287 289 290 288 284 280 275 272 269 265 260 258 258 257 257 256 255 255 254 253 252 252 253 253 253 253 251 251 251 252 252 252 251 249 247 246
258 257 257 258 261 261 259 260 261 262 264 265 267 268 269 271 272 273 274 274 275 277 278 279 281 282 285 287 288 289 288 288 287 286 286 286 286 286 286 287 288 288 287 287 288 288 288 289 289 289 289 287 285 281 277 274 272 270 267 262 258 257 257 257 257 257 256 255 254 252 251 251 251 251 252 251 251 250 250 251 252 252 252 250 248
255 256 257 259 260 260 259 260 262 263 264 266 268 270 272 272 272 272 271 270 269 270 272 273 274 275 277 278 280 280 280 279 280 281 283 285 286 287 288 290 291 292 293 294 294 292 291 291 290 289 288 284 281 277 274 272 271 270 269 266 262 258 257 256 257 258 257 256 255 254 253 251 250 249 250 250 250 250 250 250 250 251 252 252 251
254 255 256 258 259 259 259 261 262 264 265 267 269 271 273 273 273 273 272 270 268 268 269 270 270 271 272 273 274 274 273 273 274 277 279 280 282 284 286 289 291 293 295 294 293 292 291 290 289 287 285 281 277 274 272 271 270 268 268 267 265 263 260 258 258 257 257 257 256 255 254 253 251 250 249 249 249 249 249 249 249 250 250 251 251
256 257 258 259 260 261 261 262 263 265 266 268 270 272 273 273 273 272 271 269 269 269 270 271 271 271 271 272 272 272 271 272 274 275 276 277 279 281 284 286 289 291 291 290 290 289 288 287 285 283 281 278 275 272 270 269 268 268 267 266 266 265 264 262 260 259 258 256 256 255 255 254 252 251 250 249 248 248 248 248 249 249 249 249 250
259 260 261 262 263 263 264 264 265 266 267 269 271 272 273 274 274 273 271 269 268 269 269 269 269 270 270 270 270 271 271 272 272 272 273 275 277 280 282 284 286 287 287 286 286 286 286 284 281 279 276 275 272 270 269 268 268 268 268 267 266 265 264 263 262 260 259 258 257 256 256 255 253 252 251 250 249 249 248 248 248 248 248 248 249
262 263 264 265 266 267 267 267 267 268 269 270 271 272 273 273 273 272 271 269 268 268 267 267 267 267 267 267 268 269 271 272 272 273 274 276 278 279 280 281 282 283 282 282 283 285 285 282 279 277 275 273 271 269 268 268 267 267 266 266 266 265 264 264 263 262 261 259 259 257 256 255 255 254 253 253 251 250 249 249 248 248 248 248 249
263 264 265 266 267 268 269 269 270 270 270 270 270 271 271 271 271 270 268 267 267 267 267 267 266 266 267 268 269 271 272 272 274 276 277 278 279 280 281 281 281 280 278 278 280 283 282 280 278 277 275 273 272 270 269 267 266 265 265 266 266 265 264 263 263 263 262 261 260 259 258 256 255 254 254 254 254 254 253 251 250 249 248 248 248
263 264 265 266 267 268 268 269 269 270 269 269 269 269 267 267 267 267 266 264 264 265 265 265 266 267 268 269 271 272 272 273 275 278 279 280 282 283 285 285 285 283 279 277 278 280 278 277 277 277 275 274 273 271 268 266 265 265 267 268 267 266 264 262 262 262 263 263 263 262 260 258 256 255 255 255 256 256 256 255 254 253 251 250 249
263 264 264 265 265 265 266 266 267 267 267 267 266 265 264 263 262 263 264 263 263 264 266 267 268 269 270 271 271 272 273 275 277 278 279 281 283 285 287 288 289 289 286 283 280 278 277 277 277 277 276 275 275 273 270 267 266 267 268 269 267 266 264 263 262 263 265 266 266 266 265 262 259 257 257 257 257 257 257 257 257 256 256 255 253
264 264 264 264 264 263 263 263 263 264 264 264 263 262 261 259 258 258 260 260 261 262 264 267 269 270 272 273 273 273 273 275 276 277 278 280 282 284 286 288 289 290 290 289 286 282 279 279 279 279 278 277 277 277 275 272 269 268 269 270 268 266 264 263 263 264 265 266 267 267 267 266 263 261 259 258 258 258 258 258 258 258 257 257 257
264 264 264 263 263 262 262 261 261 261 261 261 261 260 259 257 256 256 257 259 260 260 260 262 264 266 268 270 272 273 273 273 274 275 276 278 280 282 284 285 286 287 288 289 290 288 284 281 280 280 279 278 278 278 277 275 273 271 272 272 271 269 267 265 264 265 265 266 265 265 265 266 265 264 262 261 260 259 259 259 259 258 258 258 258
263 263 262 262 262 261 261 260 259 259 259 259 259 259 258 257 256 256 257 259 260 260 260 261 262 263 264 265 267 269 271 273 274 275 275 276 277 278 280 282 283 284 285 287 288 289 289 287 284 282 280 278 278 277 277 276 276 275 274 274 274 272 271 270 269 268 268 268 268 267 266 266 265 264 263 263 263 262 262 262 261 260 260 259 259
262 261 260 260 260 260 260 259 259 258 258 257 257 257 257 256 256 256 256 258 260 261 262 262 262 263 264 265 265 267 268 270 272 273 274 275 276 277 278 279 280 281 281 282 284 286 288 289 288 287 283 280 278 277 276 276 276 276 275 274 274 273 272 272 271 272 272 273 273 273 272 271 270 268 265 264 263 263 263 264 264 264 263 262 261
261 261 260 259 258 258 259 259 259 258 257 257 256 256 256 255 255 256 256 258 259 261 262 263 263 263 264 264 266 267 268 269 270 270 271 272 273 275 276 277 277 277 278 278 279 280 282 285 286 287 287 284 282 279 278 277 276 275 274 274 273 272 272 272 272 273 274 275 276 276 276 275 275 274 272 270 268 267 266 266 265 264 264 264 264
260 260 259 259 258 257 257 257 258 258 258 257 256 255 254 254 254 255 256 256 258 259 260 260 261 262 264 266 266 267 268 269 269 269 269 269 270 271 272 272 273 273 273 274 275 276 277 278 280 282 283 284 284 283 282 280 279 277 276 275 275 275 275 275 276 277 277 278 278 278 278 277 277 277 276 276 275 274 273 271 269 267 265 264 263
259 259 259 258 257 256 255 255 255 256 256 256 256 255 254 253 253 252 253 254 256 258 258 258 258 260 263 265 266 266 268 268 268 268 268 268 268 268 269 270 270 270 271 272 273 273 274 275 276 277 278 280 281 282 282 282 281 280 279 278 278 278 278 278 279 279 279 280 280 280 280 280 279 279 279 279 278 277 276 275 273 271 269 266 264
258 258 258 258 258 257 256 255 254 254 254 254 254 255 255 254 253 251 251 251 253 255 258 259 260 260 260 261 262 264 265 266 267 267 267 267 267 268 268 269 269 270 271 272 273 273 274 274 275 276 276 277 278 279 280 281 281 281 280 280 280 280 280 280 279 279 280 280 281 282 282 282 282 282 281 281 280 279 278 276 275 273 272 270 268
259 258 257 257 257 257 257 256 255 254 254 253 254 254 254 254 254 252 251 251 251 253 256 259 261 261 260 260 262 262 263 264 265 266 267 267 267 268 268 269 270 271 272 273 273 274 274 274 275 275 276 276 278 279 280 281 281 280 280 280 280 280 280 280 280 280 281 282 283 283 284 284 284 284 283 283 282 280 279 277 276 274 272 271 269
262 261 260 259 258 257 257 257 257 257 256 255 255 255 254 255 254 254 253 253 253 254 255 256 259 260 261 262 263 263 264 264 265 266 267 268 268 269 270 271 271 272 272 273 273 274 274 274 275 275 276 277 278 280 281 281 280 280 279 279 279 279 279 280 280 281 282 283 284 285 286 286 286 286 286 285 284 283 282 280 277 275 273 271 269
263 263 262 262 261 260 259 259 258 258 258 257 257 256 256 256 255 255 255 255 255 255 256 257 257 259 260 261 262 263 263 264 265 266 266 267 268 268 269 270 270 271 271 272 272 273 273 274 274 275 276 277 278 279 279 279 279 278 278 278 278 278 279 279 280 281 282 283 284 285 286 287 287 287 287 287 287 286 284 282 279 277 274 272 270
263 263 263 263 263 262 262 261 260 260 259 258 258 257 257 256 256 256 257 256 256 256 257 259 259 260 260 261 261 262 262 263 263 264 264 265 266 267 267 268 269 270 270 271 272 273 273 274 274 274 275 276 276 276 277 277 277 278 278 278 278 279 280 281 281 282 283 284 285 286 287 287 288 288 289 289 288 287 285 282 280 278 275 273 271
262 262 263 263 263 263 262 262 262 261 261 260 259 258 258 257 257 257 257 257 257 257 258 259 260 260 261 261 261 262 263 263 263 263 264 265 266 266 267 267 268 269 270 271 272 273 273 273 274 274 275 275 276 276 276 277 277 278 278 279 280 280 281 282 283 284 284 285 286 287 288 289 290 291 291 291 290 288 285 283 281 278 276 274 273
261 261 261 261 261 261 261 261 261 261 261 261 261 260 259 259 258 258 257 257 258 258 258 259 260 261 261 261 262 262 263 263 263 263 264 265 265 266 267 267 268 270 271 272 272 273 273 273 273 274 274 275 275 275 276 276 277 278 278 279 280 281 282 282 283 284 285 286 287 288 289 291 292 293 293 292 290 288 286 283 281 279 277 276 274
260 259 259 259 259 259 259 260 260 260 260 261 261 261 261 261 260 260 259 259 259 259 259 260 261 261 261 261 261 262 262 262 263 263 264 264 264 264 265 266 268 269 270 271 271 272 272 272 273 273 274 274 274 275 275 276 277 277 278 279 280 281 281 282 283 284 286 287 288 290 291 292 293 293 293 291 289 287 285 282 280 279 278 278 278
261 260 260 259 258 258 258 257 258 258 258 258 259 260 260 260 260 260 260 260 260 260 260 260 261 261 262 262 262 262 262 262 263 263 263 263 263 263 264 265 266 267 269 269 270 271 271 272 273 273 273 274 274 275 276 276 277 278 279 279 280 281 282 283 284 285 286 288 289 290 292 292 293 293 292 290 287 285 282 280 280 280 282 283 283
262 262 261 261 260 260 259 258 258 257 256 256 256 257 258 259 259 259 259 260 260 260 260 261 261 261 261 262 262 263 263 264 263 263 262 262 262 262 263 263 264 265 266 268 269 269 270 271 272 273 273 274 275 276 277 278 279 279 280 280 281 282 283 284 285 286 287 288 289 290 291 292 292 291 289 287 284 282 281 281 282 284 285 284 283
265 263 263 262 261 261 260 260 259 259 258 257 256 256 256 257 258 259 259 259 259 259 259 260 261 261 261 261 262 263 264 264 264 263 262 263 263 263 264 264 264 265 265 266 267 268 269 270 271 271 272 273 274 275 276 277 278 279 279 280 281 282 282 283 284 285 287 288 289 289 290 290 290 289 286 283 281 281 282 284 286 286 285 283 282
265 265 263 262 262 261 260 259 259 260 260 259 259 258 257 256 257 258 258 259 259 259 259 259 260 260 261 261 262 262 263 264 264 263 263 263 263 264 265 266 266 266 266 265 265 266 267 268 269 270 271 271 272 273 274 275 276 276 277 278 279 280 281 282 283 285 286 287 288 288 289 289 288 286 283 281 281 283 286 287 287 286 284 282 281
265 264 263 262 261 261 260 260 259 259 259 260 260 260 259 259 258 257 257 258 259 259 260 261 261 261 261 261 262 262 262 263 264 265 265 264 264 265 265 266 266 266 266 266 266 266 266 267 267 268 269 270 271 272 272 273 274 275 276 277 278 279 280 282 283 284 285 286 287 287 288 287 285 282 281 281 283 286 287 287 285 284 283 282 282
265 265 264 263 262 261 261 260 259 258 258 259 259 259 259 260 260 260 259 258 258 258 259 260 261 262 262 263 263 263 263 264 265 266 266 266 266 266 266 266 266 266 266 267 267 267 267 267 267 268 268 269 270 271 272 273 274 275 276 277 278 280 280 281 282 283 284 285 286 286 286 284 281 280 281 283 285 286 286 285 283 283 283 283 282
267 266 265 264 263 262 262 261 260 259 258 258 258 258 258 258 259 259 260 259 259 258 258 258 259 260 262 263 263 264 264 265 266 266 266 266 266 267 267 267 266 266 267 267 267 267 267 268 268 268 269 270 271 272 273 274 275 276 277 278 279 279 280 281 281 282 283 284 285 285 283 281 279 280 282 284 285 284 283 282 282 283 283 283 283
269 267 266 265 264 263 262 261 261 260 258 257 257 257 256 256 256 257 258 259 259 259 259 259 259 259 259 260 261 263 264 265 265 266 267 267 267 267 267 266 266 266 266 266 266 267 267 268 268 269 270 271 272 273 274 275 276 277 277 278 278 278 279 280 281 282 283 283 283 282 280 279 279 281 283 283 282 281 281 282 283 283 284 284 284
269 267 266 265 264 263 262 261 261 260 259 257 256 256 255 255 255 255 256 257 258 259 260 259 259 259 259 260 260 261 262 263 265 266 268 268 268 267 265 264 264 264 264 265 265 266 266 267 268 269 270 271 272 273 274 274 275 275 276 276 276 277 278 279 280 281 282 282 281 279 278 278 280 282 282 281 280 280 281 282 283 284 284 285 284
268 266 265 263 262 262 261 261 260 259 258 257 255 254 254 254 254 253 254 255 256 258 258 258 258 259 259 260 260 260 260 262 263 265 267 267 265 264 262 262 262 263 263 263 264 264 265 266 268 269 270 271 271 272 272 272 273 273 274 275 275 276 277 279 280 280 280 279 278 276 276 278 280 280 279 279 280 281 282 282 284 285 285 284 284
268 267 265 263 262 260 259 259 258 257 256 256 255 254 253 252 252 252 252 253 253 255 256 256 257 258 259 259 258 258 259 261 263 264 264 263 261 261 260 261 262 262 261 262 262 263 264 266 267 268 269 270 270 270 270 270 271 272 272 273 275 276 277 278 279 278 278 277 275 275 276 277 278 278 278 279 280 281 282 283 283 283 283 283 283
270 269 268 266 264 261 259 258 256 255 254 253 253 252 252 251 251 250 251 251 251 251 253 255 256 257 258 258 258 258 258 259 260 260 260 260 259 260 260 260 260 260 260 261 262 263 264 265 267 268 268 268 269 269 269 270 270 271 272 273 274 275 276 276 277 277 276 275 274 274 275 276 276 276 277 279 280 281 282 282 281 280 280 281 282
271 270 269 268 266 264 261 258 256 254 252 251 250 250 249 250 250 249 249 249 250 250 251 252 253 254 256 258 259 260 259 257 256 256 257 257 258 259 259 259 260 260 261 261 262 263 264 265 266 267 267 268 268 268 269 269 269 270 270 271 273 274 275 275 275 274 273 273 274 274 275 275 276 276 277 278 279 279 279 279 279 279 278 279 279
271 270 269 268 267 265 263 260 258 255 252 250 249 247 247 247 248 248 248 248 249 250 251 251 251 253 255 258 260 262 262 259 256 253 253 254 256 257 258 259 259 260 260 261 262 262 264 265 266 266 267 267 267 267 267 267 267 268 269 270 271 272 273 273 273 272 272 272 273 274 275 275 276 276 277 278 277 276 276 276 277 278 278 278 279
270 270 268 267 266 265 263 261 259 256 254 251 249 247 246 245 246 246 246 247 248 249 250 251 252 253 255 257 259 260 259 255 252 250 250 252 253 255 256 257 258 258 259 260 261 262 263 264 265 265 265 266 266 266 265 265 266 267 268 269 270 271 271 271 271 270 270 271 273 274 275 275 275 275 275 274 273 273 273 274 276 278 279 281 281
270 268 267 266 265 264 263 261 260 257 255 253 251 249 247 245 245 244 244 244 245 246 248 249 250 252 253 254 255 254 252 250 250 250 250 250 251 253 253 254 255 256 257 259 260 261 262 263 263 263 263 264 263 263 264 264 265 265 266 267 268 268 269 269 269 269 270 271 272 273 273 273 273 272 271 270 270 271 272 274 276 278 281 282 282
271 269 267 266 265 263 262 261 260 258 256 254 251 248 246 244 244 243 242 243 243 244 246 248 249 251 253 254 253 250 249 248 248 248 248 248 249 250 251 252 253 255 256 258 259 260 260 260 260 261 261 261 261 261 262 262 263 264 265 265 266 267 267 267 267 268 270 271 271 271 271 271 270 268 267 267 268 270 272 275 277 279 280 281 281
274 273 271 268 265 263 262 261 259 257 255 253 250 248 246 244 243 242 241 241 242 243 245 248 250 251 252 250 247 245 244 244 244 244 245 247 248 248 249 251 252 254 255 257 258 258 258 258 258 258 259 259 259 259 260 261 261 262 263 264 264 265 265 265 266 268 269 270 270 269 269 267 265 263 263 264 266 270 272 274 276 277 278 279 280
277 276 274 271 268 264 262 260 258 255 253 252 250 248 246 245 244 243 242 241 241 243 245 247 249 249 247 243 241 240 240 240 240 242 243 245 246 247 249 250 251 252 253 255 255 255 255 255 256 256 256 256 257 257 258 259 260 260 261 262 262 263 264 265 266 266 267 267 267 266 264 262 260 259 259 260 263 267 269 271 273 273 274 276 280
277 277 275 273 270 267 263 260 258 255 252 250 248 247 245 243 242 241 241 240 239 240 241 243 243 241 239 237 236 236 236 237 238 240 242 244 245 247 248 249 249 250 251 251 252 252 253 254 254 254 254 254 255 255 256 257 257 258 259 260 261 262 263 264 265 265 265 265 264 263 260 257 256 256 257 258 259 261 263 266 268 270 272 275 279
280 279 277 275 272 269 265 261 257 254 252 249 247 245 243 241 239 238 238 238 238 238 239 239 238 236 235 234 234 235 236 237 238 239 241 243 244 245 246 246 246 247 248 248 249 250 251 251 252 252 252 252 253 253 254 255 256 257 258 259 260 261 262 263 263 264 264 263 261 259 256 254 253 254 256 256 256 256 258 260 263 265 269 273 278
283 282 280 278 275 272 267 262 258 254 251 248 245 242 240 239 238 237 236 236 236 237 237 237 237 236 235 235 234 235 236 236 237 238 240 242 243 244 243 243 244 244 246 247 248 248 249 249 250 250 250 251 251 252 253 254 255 256 257 258 259 260 261 261 261 262 261 260 258 255 252 251 251 252 254 254 254 255 256 257 259 261 264 268 273
286 285 283 280 278 275 271 265 259 254 249 246 243 240 238 238 237 236 236 235 235 235 236 236 237 237 237 236 235 235 235 235 236 237 239 240 241 241 240 241 242 243 244 245 246 246 247 248 249 249 250 250 250 251 252 253 254 255 256 257 258 259 259 259 259 258 257 256 254 252 250 248 249 250 251 251 251 253 256 257 257 258 259 262 267
287 286 284 282 280 277 274 268 262 255 249 244 241 238 236 235 234 234 234 234 234 233 233 233 234 235 235 235 235 235 235 235 235 236 237 237 237 238 238 239 240 242 243 244 245 245 246 247 247 248 248 249 249 249 250 251 253 254 254 255 256 256 256 256 256 254 253 252 251 249 247 246 247 248 248 247 248 251 254 256 256 256 257 259 262
287 286 284 282 281 278 275 270 265 257 249 243 240 238 235 233 231 231 230 231 231 231 231 231 231 231 231 232 233 233 233 234 234 235 235 235 236 236 237 238 240 241 242 243 244 244 245 245 246 246 246 247 247 248 249 250 251 252 253 254 254 254 253 253 252 251 250 249 248 247 246 245 246 246 245 244 245 247 251 253 254 254 256 257 259
Height
10554 10554 10555 10555 10553 10552 10552 10552 10552 10552 10552 10552 10552 10549 10548 10549 10549 10548 10547 10546 10546 10546 10547 10547 10548 10550 10553 10555 10557 10558 10558 10559 10560 10561 10561 10562 10563 10564 10565 10565 10565 10565 10565 10564 10564 10564 10564 10564 10564 10564 10563 10563 10563 10563 10563 10564 10564 10564 10565 10566 10567 10567 10568 10568 10569 10569 10569 10569 10570 10570 10571 10572 10572 10573 10574 10574 10575 10576 10577 10578 10579 10581 10582 10584 10585
10548 10548 10548 10548 10547 10548 10549 10549 10548 10548 10547 10547 10547 10546 10545 10543 10543 10542 10541 10541 10540 10540 10540 10540 10540 10541 10542 10544 10545 10546 10548 10549 10550 10552 10553 10554 10555 10556 10556 10557 10558 10558 10558 10557 10557 10557 10557 10556 10556 10556 10556 10556 10556 10556 10556 10557 10557 10557 10558 10559 10560 10561 10561 10561 10561 10562 10562 10563 10563 10564 10565 10565 10566 10566 10567 10568 10569 10570 10571 10572 10573 10574 10576 10577 10579
10543 10543 10542 10541 10541 10543 10545 10545 10544 10543 10542 10541 10541 10541 10541 10540 10539 10538 10537 10536 10535 10534 10534 10534 10535 10535 10535 10535 10536 10536 10537 10537 10539 10540 10541 10542 10543 10544 10546 10547 10549 10550 10550 10550 10550 10550 10549 10549 10548 10548 10548 10548 10548 10548 10549 10549 10550 10550 10550 10551 10552 10553 10554 10554 10555 10555 10555 10556 10557 10557 10558 10558 10559 10559 10560 10561 10561 10563 10564 10565 10566 10567 10569 10570 10572
10538 10538 10536 10535 10535 10537 10539 10539 10537 10536 10536 10536 10535 10535 10535 10536 10536 10535 10534 10533 10532 10530 10529 10530 10530 10531 10532 10532 10532 10532 10532 10532 10532 10532 10533 10533 10533 10535 10536 10538 10541 10542 10542 10543 10542 10542 10541 10541 10541 10541 10541 10541 10541 10541 10541 10542 10543 10543 10544 10544 10545 10546 10547 10548 10548 10548 10549 10549 10550 10550 10551 10551 10552 10552 10552 10553 10554 10555 10557 10558 10559 10560 10561 10563 10564
10532 10532 10531 10529 10528 10530 10533 10532 10530 10529 10529 10529 10529 10529 10529 10529 10529 10529 10529 10528 10527 10526 10525 10525 10525 10526 10528 10528 10528 10527 10528 10527 10527 10527 10527 10527 10527 10528 10530 10532 10534 10535 10536 10535 10535 10534 10534 10533 10534 10534 10534 10534 10533 10534 10534 10535 10536 10536 10537 10537 10538 10539 10539 10540 10541 10542 10542 10542 10543 10543 10543 10544 10544 10545 10545 10546 10547 10548 10549 10550 10551 10553 10554 10555 10556
10525 10525 10524 10522 10521 10522 10525 10525 10523 10522 10522 10523 10523 10522 10522 10522 10522 10522 10522 10521 10520 10520 10520 10519 10518 10519 10521 10522 10521 10521 10521 10521 10521 10521 10520 10520 10521 10522 10523 10526 10528 10530 10530 10529 10528 10528 10527 10527 10527 10527 10527 10526 10526 10527 10527 10528 10529 10529 10530 10530 10531 10531 10532 10533 10533 10534 10535 10535 10536 10536 10536 10536 10536 10536 10537 10538 10539 10540 10541 10542 10543 10544 10545 10546 10547
10516 10516 10515 10514 10512 10512 10515 10516 10515 10515 10515 10516 10515 10514 10514 10515 10515 10514 10514 10513 10512 10512 10513 10512 10511 10511 10512 10514 10514 10514 10514 10514 10514 10513 10512 10513 10515 10516 10517 10520 10523 10524 10524 10522 10521 10521 10520 10520 10520 10520 10520 10520 10520 10520 10520 10521 10521 10522 10523 10523 10523 10524 10524 10525 10525 10526 10526 10528 10528 10529 10528 10528 10528 10528 10529 10530 10531 10532 10533 10535 10536 10537 10537 10538 10539
10507 10507 10506 10505 10504 10503 10504 10505 10505 10506 10507 10508 10508 10507 10507 10506 10506 10505 10505 10504 10504 10504 10504 10504 10504 10503 10504 10506 10506 10507 10507 10506 10505 10505 10505 10505 10507 10509 10510 10513 10517 10519 10518 10516 10515 10514 10513 10513 10513 10513 10513 10513 10513 10514 10514 10514 10515 10515 10516 10516 10516 10517 10517 10517 10517 10518 10518 10520 10520 10520 10519 10519 10520 10521 10522 10522 10522 10523 10524 10526 10527 10528 10529 10530 10531
10498 10498 10498 10497 10497 10495 10495 10495 10496 10497 10498 10498 10499 10501 10500 10497 10496 10496 10496 10496 10495 10494 10494 10494 10493 10493 10495 10497 10498 10500 10500 10497 10495 10497 10496 10495 10495 10498 10500 10502 10507 10511 10512 10511 10510 10508 10507 10507 10506 10507 10507 10507 10507 10507 10507 10508 10508 10509 10509 10509 10509 10510 10510 10510 10510 10510 10511 10512 10512 10511 10510 10510 10511 10512 10514 10514 10515 10516 10516 10517 10518 10519 10520 10521 10522
10490 10490 10490 10490 10489 10488 10487 10486 10487 10488 10488 10488 10491 10494 10494 10491 10488 10486 10487 10487 10486 10485 10485 10484 10483 10484 10487 10489 10490 10491 10492 10490 10489 10489 10488 10485 10485 10486 10488 10490 10493 10499 10503 10504 10504 10503 10502 10502 10501 10501 10501 10501 10501 10501 10501 10501 10501 10502 10503 10503 10502 10502 10502 10502 10502 10503 10503 10504 10504 10503 10501 10501 10502 10504 10505 10506 10506 10507 10508 10509 10510 10510 10511 10512 10512
10481 10481 10482 10482 10481 10481 10480 10479 10479 10479 10479 10480 10483 10485 10486 10486 10482 10479 10479 10479 10477 10476 10476 10475 10475 10476 10478 10480 10482 10484 10484 10483 10483 10482 10481 10479 10478 10478 10479 10480 10480 10483 10488 10492 10496 10496 10496 10496 10495 10495 10495 10495 10495 10495 10495 10495 10495 10495 10496 10496 10495 10495 10495 10495 10494 10494 10495 10495 10496 10495 10492 10491 10493 10496 10497 10497 10497 10498 10499 10500 10501 10502 10502 10503 10503
10472 10472 10473 10473 10473 10473 10472 10472 10472 10472 10471 10472 10474 10477 10479 10479 10476 10473 10473 10472 10470 10470 10469 10467 10467 10469 10470 10471 10473 10475 10477 10477 10476 10476 10475 10474 10473 10472 10473 10473 10473 10473 10474 10477 10483 10487 10488 10488 10488 10488 10488 10488 10488 10488 10488 10489 10488 10488 10488 10488 10488 10488 10487 10487 10486 10486 10486 10487 10487 10487 10484 10482 10484 10487 10487 10487 10488 10489 10489 10490 10491 10492 10493 10493 10493
10462 10462 10463 10463 10464 10464 10464 10464 10464 10464 10465 10464 10465 10467 10470 10470 10468 10468 10468 10466 10464 10463 10462 10461 10462 10462 10463 10464 10464 10466 10468 10470 10471 10470 10470 10469 10468 10467 10467 10466 10467 10467 10466 10466 10468 10473 10477 10479 10480 10480 10480 10480 10480 10480 10480 10481 10481 10481 10481 10480 10480 10480 10479 10479 10478 10478 10478 10478 10478 10478 10476 10474 10475 10476 10477 10478 10479 10479 10479 10479 10480 10481 10482 10482 10483
10450 10451 10452 10453 10453 10454 10454 10455 10455 10456 10457 10457 10457 10458 10460 10461 10461 10462 10462 10459 10456 10456 10456 10456 10456 10456 10456 10458 10458 10459 10459 10461 10463 10463 10463 10463 10463 10463 10462 10462 10461 10461 10460 10459 10458 10459 10463 10466 10469 10470 10471 10471 10471 10471 10471 10471 10471 10472 10472 10472 10471 10471 10471 10470 10470 10469 10469 10468 10469 10469 10468 10466 10466 10467 10468 10469 10468 10469 10469 10469 10470 10471 10471 10472 10472
10438 10440 10441 10442 10442 10443 10443 10444 10445 10447 10448 10449 10449 10449 10451 10451 10452 10454 10454 10451 10449 10448 10448 10448 10448 10448 10448 10449 10450 10452 10453 10454 10455 10456 10456 10456 10456 10456 10456 10456 10456 10455 10455 10455 10454 10452 10452 10453 10455 10458 10459 10460 10460 10460 10460 10460 10461 10462 10462 10462 10462 10462 10462 10461 10460 10460 10459 10459 10459 10459 10459 10458 10457 10458 10459 10459 10459 10459 10460 10460 10460 10460 10461 10461 10460
10427 10428 10429 10430 10431 10432 10433 10433 10434 10436 10437 10439 10440 10441 10441 10441 10443 10446 10448 10445 10442 10441 10440 10439 10439 10439 10440 10441 10442 10444 10445 10445 10447 10449 10449 10449 10449 10448 10448 10448 10448 10448 10448 10448 10448 10448 10447 10446 10446 10446 10447 10448 10448 10449 10449 10449 10450 10451 10451 10452 10452 10452 10452 10452 10451 10451 10450 10450 10450 10449 10450 10449 10448 10449 10449 10449 10449 10450 10450 10450 10450 10450 10450 10450 10448
10416 10417 10417 10419 10420 10421 10422 10423 10424 10425 10426 10428 10429 10430 10430 10432 10435 10439 10439 10437 10435 10433 10430 10429 10429 10430 10431 10433 10435 10435 10435 10436 10438 10440 10441 10441 10442 10442 10442 10442 10441 10441 10441 10440 10440 10441 10441 10440 10439 10438 10438 10437 10437 10437 10437 10438 10439 10440 10440 10441 10442 10442 10442 10442 10441 10441 10440 10440 10440 10440 10440 10439 10439 10439 10439 10439 10439 10439 10438 10438 10438 10437 10438 10438 10437
10407 10407 10408 10408 10409 10410 10411 10413 10414 10415 10416 10417 10417 10418 10419 10422 10425 10429 10429 10427 10426 10423 10419 10417 10420 10424 10425 10425 10425 10426 10426 10427 10429 10430 10431 10433 10434 10434 10434 10434 10434 10433 10433 10433 10432 10432 10432 10432 10431 10431 10430 10429 10428 10427 10427 10427 10428 10428 10429 10430 10430 10430 10430 10430 10430 10430 10430 10429 10429 10429 10429 10429 10428 10429 10429 10428 10428 10427 10426 10426 10425 10424 10424 10424 10424
10399 10398 10399 10399 10399 10400 10401 10402 10403 10404 10405 10406 10407 10407 10408 10410 10413 10416 10417 10417 10416 10413 10409 10407 10411 10418 10419 10415 10415 10418 10418 10418 10419 10421 10422 10424 10425 10425 10425 10425 10425 10425 10424 10424 10424 10423 10423 10422 10422 10421 10420 10420 10419 10419 10418 10418 10418 10418 10418 10418 10418 10419 10419 10418 10419 10419 10418 10418 10418 10417 10417 10417 10417 10417 10417 10416 10416 10415 10414 10413 10412 10411 10411 10410 10409
10389 10390 10390 10391 10391 10392 10392 10392 10392 10394 10395 10396 10397 10397 10398 10399 10401 10404 10406 10406 10405 10404 10402 10399 10401 10406 10408 10405 10405 10408 10408 10408 10409 10411 10413 10415 10415 10416 10416 10416 10416 10416 10415 10415 10414 10414 10414 10414 10413 10412 10411 10411 10410 10410 10410 10410 10409 10408 10408 10407 10408 10407 10407 10407 10407 10407 10407 10406 10406 10406 10405 10405 10405 10405 10404 10403 10402 10402 10401 10400 10398 10397 10397 10396 10394
10379 10381 10381 10381 10383 10383 10383 10383 10383 10385 10386 10386 10387 10388 10389 10390 10391 10392 10394 10396 10396 10396 10394 10392 10391 10394 10396 10397 10397 10397 10397 10398 10400 10402 10404 10405 10405 10406 10407 10407 10407 10406 10406 10405 10405 10405 10404 10404 10403 10402 10402 10402 10402 10401 10401 10400 10400 10399 10398 10398 10397 10397 10396 10396 10396 10396 10395 10395 10394 10394 10393 10392 10392 10391 10390 10390 10389 10388 10387 10385 10384 10382 10382 10381 10379
10369 10370 10370 10371 10372 10373 10374 10374 10375 10376 10377 10377 10378 10379 10380 10381 10382 10383 10384 10386 10388 10388 10384 10381 10382 10385 10387 10388 10388 10387 10387 10389 10391 10392 10393 10394 10395 10396 10397 10397 10397 10396 10396 10396 10395 10395 10395 10394 10394 10393 10393 10393 10393 10392 10391 10390 10389 10388 10388 10387 10387 10386 10386 10386 10386 10386 10385 10384 10383 10382 10381 10380 10379 10378 10378 10377 10376 10375 10373 10371 10369 10367 10366 10365 10364
10358 10359 10360 10360 10361 10362 10363 10364 10365 10366 10367 10367 10368 10369 10370 10371 10372 10373 10375 10376 10378 10379 10374 10371 10373 10376 10377 10378 10378 10377 10378 10380 10381 10382 10383 10384 10386 10387 10388 10388 10387 10386 10386 10386 10386 10386 10385 10385 10384 10383 10383 10383 10383 10382 10381 10380 10379 10378 10377 10376 10376 10376 10376 10376 10376 10375 10374 10373 10371 10370 10369 10368 10367 10367 10366 10365 10363 10361 10358 10357 10354 10352 10351 10350 10349
10349 10349 10349 10349 10349 10350 10351 10352 10353 10355 10355 10356 10358 10359 10359 10361 10362 10364 10365 10365 10367 10368 10365 10363 10364 10366 10366 10367 10368 10368 10368 10369 10370 10372 10374 10375 10377 10378 10378 10378 10378 10377 10377 10377 10377 10376 10376 10375 10374 10373 10373 10373 10373 10372 10371 10370 10369 10368 10367 10366 10365 10365 10365 10365 10364 10363 10362 10360 10359 10358 10357 10356 10355 10355 10353 10351 10349 10346 10344 10343 10340 10338 10337 10336 10335
10339 10339 10338 10337 10337 10337 10338 10340 10341 10342 10343 10344 10346 10347 10348 10349 10351 10353 10354 10355 10356 10356 10355 10354 10354 10355 10356 10356 10357 10357 10358 10357 10359 10362 10365 10366 10367 10368 10368 10368 10368 10368 10368 10368 10368 10367 10365 10365 10364 10364 10364 10363 10363 10362 10362 10361 10360 10359 10358 10356 10356 10355 10354 10353 10352 10351 10350 10349 10348 10346 10345 10345 10344 10343 10341 10339 10336 10333 10331 10329 10327 10325 10324 10323 10323
10325 10325 10326 10325 10324 10324 10326 10327 10328 10329 10331 10332 10333 10334 10336 10338 10340 10341 10342 10344 10344 10344 10344 10344 10344 10344 10345 10345 10346 10347 10346 10346 10348 10353 10356 10357 10358 10359 10359 10360 10360 10360 10360 10359 10358 10357 10355 10355 10355 10355 10354 10354 10353 10352 10352 10351 10351 10350 10349 10347 10346 10345 10344 10343 10342 10340 10339 10338 10336 10335 10334 10334 10332 10331 10329 10327 10324 10321 10319 10317 10315 10313 10312 10312 10312
10310 10311 10311 10311 10311 10311 10312 10313 10314 10315 10317 10320 10321 10321 10322 10325 10326 10327 10329 10331 10332 10331 10332 10333 10333 10333 10333 10333 10335 10335 10335 10336 10339 10343 10345 10346 10349 10350 10351 10352 10352 10352 10351 10350 10348 10347 10346 10345 10345 10345 10344 10343 10342 10342 10342 10341 10341 10341 10339 10338 10336 10335 10333 10332 10331 10329 10328 10326 10326 10325 10324 10323 10322 10320 10318 10316 10313 10310 10308 10306 10305 10304 10303 10303 10302
10296 10297 10296 10296 10296 10297 10297 10298 10299 10300 10302 10306 10308 10309 10310 10311 10311 10313 10317 10319 10318 10318 10319 10320 10322 10322 10321 10322 10322 10322 10323 10326 10328 10331 10333 10336 10338 10340 10341 10343 10344 10343 10342 10340 10338 10337 10336 10335 10335 10334 10333 10333 10332 10331 10331 10331 10331 10330 10329 10328 10326 10325 10323 10321 10320 10319 10318 10317 10316 10315 10314 10313 10312 10310 10308 10305 10302 10298 10296 10296 10296 10296 10296 10294 10292
10280 10282 10282 10281 10281 10282 10281 10282 10284 10285 10287 10291 10293 10295 10298 10298 10297 10300 10304 10304 10304 10305 10306 10307 10308 10308 10307 10309 10312 10312 10313 10312 10312 10316 10322 10326 10327 10329 10331 10333 10333 10333 10332 10329 10327 10326 10326 10325 10325 10324 10323 10323 10322 10322 10322 10322 10321 10320 10319 10318 10317 10315 10313 10311 10310 10309 10308 10308 10307 10306 10306 10305 10303 10301 10298 10295 10291 10288 10288 10289 10289 10289 10287 10285 10282
10265 10265 10266 10266 10266 10265 10266 10268 10270 10271 10272 10276 10278 10280 10283 10285 10286 10287 10289 10288 10288 10290 10292 10293 10295 10295 10294 10296 10300 10302 10301 10298 10297 10302 10310 10315 10317 10319 10321 10322 10322 10321 10319 10317 10316 10316 10316 10315 10315 10314 10313 10313 10313 10313 10313 10313 10313 10312 10311 10309 10307 10306 10304 10303 10301 10300 10300 10299 10299 10298 10297 10296 10294 10291 10287 10284 10281 10281 10281 10282 10282 10280 10277 10276 10274
10251 10250 10249 10250 10250 10250 10251 10254 10257 10258 10259 10262 10264 10266 10268 10271 10272 10273 10274 10274 10275 10276 10277 10279 10280 10280 10281 10284 10286 10287 10288 10286 10285 10291 10299 10304 10307 10309 10311 10311 10310 10307 10305 10305 10305 10306 10305 10304 10304 10304 10303 10303 10304 10304 10304 10304 10304 10303 10301 10299 10298 10297 10296 10294 10293 10292 10291 10291 10291 10290 10290 10288 10285 10281 10277 10275 10275 10275 10275 10275 10273 10271 10269 10268 10267
10238 10237 10235 10236 10237 10237 10238 10240 10242 10245 10247 10248 10250 10253 10255 10257 10258 10258 10260 10261 10262 10263 10264 10265 10265 10266 10268 10270 10271 10272 10274 10275 10276 10280 10287 10293 10296 10297 10298 10298 10296 10294 10293 10294 10294 10294 10293 10292 10292 10292 10293 10293 10293 10294 10294 10294 10293 10292 10291 10290 10289 10288 10286 10285 10284 10284 10283 10283 10283 10283 10282 10280 10276 10272 10270 10270 10270 10270 10268 10266 10264 10263 10262 10261 10260
10225 10224 10223 10223 10224 10225 10226 10227 10228 10232 10235 10236 10237 10239 10242 10243 10245 10246 10245 10246 10247 10248 10251 10254 10256 10256 10257 10257 10257 10258 10261 10264 10266 10269 10275 10281 10284 10286 10286 10284 10282 10281 10282 10282 10282 10281 10281 10281 10281 10281 10282 10282 10283 10284 10284 10283 10283 10282 10281 10281 10280 10278 10277 10276 10276 10276 10276 10276 10276 10275 10274 10270 10267 10264 10264 10265 10265 10263 10260 10258 10257 10256 10255 10255 10254
10211 10212 10211 10211 10211 10213 10214 10215 10216 10218 10222 10224 10226 10227 10228 10230 10232 10233 10233 10232 10233 10235 10239 10243 10245 10246 10246 10246 10246 10247 10249 10252 10255 10259 10265 10270 10273 10274 10274 10271 10269 10269 10270 10270 10270 10271 10271 10271 10271 10271 10271 10272 10273 10274 10274 10273 10273 10273 10272 10271 10271 10270 10269 10269 10269 10269 10269 10269 10269 10268 10265 10262 10260 10259 10260 10259 10258 10255 10253 10252 10251 10250 10249 10248 10247
10198 10199 10199 10199 10200 10200 10202 10203 10205 10207 10210 10212 10213 10214 10215 10217 10219 10221 10222 10221 10221 10224 10228 10231 10232 10233 10235 10236 10237 10238 10240 10242 10246 10251 10256 10260 10262 10262 10259 10257 10256 10258 10260 10260 10260 10260 10260 10261 10261 10261 10262 10264 10265 10265 10265 10264 10264 10264 10263 10263 10262 10262 10262 10262 10262 10263 10262 10262 10262 10260 10257 10255 10255 10254 10253 10252 10250 10249 10248 10246 10245 10244 10243 10242 10241
10188 10188 10188 10189 10190 10190 10190 10192 10194 10196 10198 10200 10201 10201 10203 10204 10207 10209 10210 10210 10212 10214 10216 10217 10219 10222 10224 10225 10226 10229 10231 10234 10239 10245 10248 10249 10249 10247 10245 10245 10247 10250 10250 10250 10250 10251 10251 10251 10252 10253 10255 10256 10256 10256 10256 10256 10256 10255 10255 10255 10255 10255 10255 10256 10256 10256 10256 10255 10255 10253 10251 10251 10250 10249 10247 10246 10244 10243 10242 10241 10240 10239 10238 10236 10235
10177 10177 10178 10179 10180 10181 10181 10183 10184 10186 10187 10188 10189 10190 10192 10193 10195 10197 10198 10200 10204 10204 10202 10204 10209 10213 10212 10212 10214 10219 10223 10228 10234 10238 10238 10237 10236 10235 10235 10238 10240 10240 10240 10241 10242 10242 10243 10243 10245 10247 10248 10248 10248 10248 10248 10248 10248 10248 10248 10248 10248 10249 10249 10250 10250 10249 10249 10248 10248 10247 10246 10246 10245 10243 10241 10240 10239 10238 10237 10236 10236 10234 10233 10231 10230
10167 10168 10168 10169 10170 10171 10172 10173 10175 10176 10177 10178 10179 10181 10181 10182 10184 10186 10188 10190 10193 10193 10193 10196 10201 10202 10200 10200 10204 10210 10217 10223 10227 10228 10227 10225 10225 10225 10227 10230 10230 10231 10232 10233 10234 10234 10235 10236 10238 10239 10240 10240 10240 10240 10240 10240 10240 10241 10241 10241 10242 10243 10243 10243 10243 10243 10242 10242 10241 10241 10242 10241 10239 10237 10236 10235 10234 10233 10232 10231 10231 10230 10229 10227 10226
10158 10158 10159 10159 10160 10161 10162 10164 10165 10166 10167 10169 10170 10171 10172 10173 10174 10176 10178 10180 10182 10184 10186 10189 10192 10191 10190 10191 10196 10202 10210 10216 10218 10218 10217 10216 10216 10217 10219 10220 10222 10223 10224 10225 10226 10227 10228 10230 10231 10232 10231 10231 10232 10232 10232 10233 10233 10234 10234 10235 10235 10236 10237 10237 10237 10237 10236 10236 10236 10236 10236 10235 10233 10231 10231 10230 10230 10229 10228 10227 10226 10225 10225 10224 10222
10150 10150 10150 10151 10151 10152 10153 10154 10156 10157 10158 10160 10161 10162 10163 10164 10165 10167 10169 10171 10173 10175 10178 10180 10183 10183 10183 10185 10190 10196 10203 10208 10209 10209 10208 10207 10208 10209 10211 10213 10215 10216 10217 10218 10219 10220 10222 10223 10224 10224 10224 10224 10225 10225 10226 10226 10227 10228 10228 10229 10229 10230 10231 10231 10232 10231 10230 10230 10231 10231 10230 10230 10228 10227 10226 10226 10225 10224 10223 10222 10222 10221 10220 10220 10219
10143 10143 10143 10143 10143 10144 10145 10145 10147 10148 10149 10151 10153 10154 10155 10156 10157 10159 10162 10164 10166 10168 10169 10172 10175 10176 10177 10180 10186 10191 10196 10198 10198 10198 10199 10200 10201 10202 10204 10206 10208 10209 10210 10211 10212 10214 10216 10217 10216 10216 10217 10218 10218 10219 10220 10220 10221 10222 10222 10223 10224 10224 10225 10226 10226 10226 10225 10225 10226 10226 10225 10224 10224 10223 10222 10221 10221 10220 10219 10219 10218 10217 10216 10216 10215
10136 10136 10136 10136 10137 10137 10137 10138 10139 10140 10142 10143 10145 10146 10147 10148 10150 10152 10154 10156 10158 10160 10162 10164 10167 10168 10169 10175 10181 10185 10187 10188 10189 10190 10192 10193 10193 10195 10198 10199 10200 10202 10203 10205 10206 10208 10209 10210 10209 10210 10211 10212 10212 10213 10214 10215 10215 10216 10217 10218 10219 10219 10220 10221 10221 10221 10220 10220 10221 10221 10220 10220 10219 10219 10218 10217 10216 10216 10216 10215 10215 10214 10213 10213 10212
10129 10129 10130 10131 10131 10131 10131 10132 10133 10134 10135 10136 10137 10138 10139 10141 10142 10144 10147 10149 10151 10152 10154 10156 10158 10161 10165 10171 10177 10179 10179 10180 10182 10183 10183 10184 10186 10189 10191 10192 10194 10196 10197 10199 10200 10202 10202 10202 10203 10204 10205 10206 10207 10208 10209 10209 10210 10211 10212 10213 10214 10214 10215 10216 10216 10215 10215 10215 10215 10216 10216 10215 10215 10214 10214 10213 10213 10213 10212 10212 10212 10211 10211 10210 10210
10123 10124 10124 10125 10125 10126 10126 10126 10127 10128 10129 10129 10130 10131 10132 10134 10136 10138 10140 10142 10144 10145 10147 10149 10152 10157 10162 10167 10170 10170 10170 10172 10173 10174 10175 10177 10180 10182 10184 10185 10188 10190 10191 10193 10195 10195 10195 10196 10197 10198 10199 10201 10202 10203 10203 10204 10205 10206 10207 10208 10209 10209 10210 10211 10211 10210 10210 10210 10211 10211 10211 10211 10211 10210 10210 10210 10210 10209 10209 10209 10209 10209 10209 10208 10207
10118 10118 10119 10119 10119 10120 10121 10121 10122 10123 10123 10123 10124 10125 10127 10128 10130 10132 10134 10136 10137 10139 10141 10144 10148 10153 10157 10159 10160 10160 10162 10164 10166 10167 10169 10171 10174 10176 10178 10180 10183 10184 10186 10187 10188 10188 10189 10191 10192 10193 10194 10196 10197 10198 10199 10200 10200 10201 10202 10203 10204 10205 10205 10206 10206 10206 10206 10206 10206 10206 10207 10207 10206 10206 10206 10206 10206 10206 10206 10207 10207 10207 10207 10206 10205
10114 10114 10114 10114 10114 10115 10115 10116 10116 10117 10118 10118 10119 10120 10122 10123 10125 10127 10128 10130 10131 10133 10135 10138 10142 10145 10148 10150 10151 10152 10154 10156 10158 10161 10163 10165 10168 10170 10173 10175 10177 10179 10180 10180 10180 10182 10184 10186 10186 10188 10189 10191 10192 10193 10194 10195 10196 10196 10197 10198 10199 10200 10200 10201 10201 10201 10201 10201 10202 10202 10202 10203 10202 10203 10203 10203 10204 10204 10204 10204 10205 10205 10204 10204 10203
10110 10110 10110 10110 10110 10110 10111 10111 10112 10112 10113 10114 10115 10116 10117 10118 10120 10121 10123 10124 10126 10128 10130 10132 10135 10138 10140 10142 10144 10146 10148 10151 10153 10155 10158 10160 10162 10165 10168 10170 10172 10172 10173 10173 10175 10177 10179 10180 10181 10183 10184 10185 10187 10188 10189 10190 10191 10192 10192 10193 10194 10195 10195 10196 10196 10196 10196 10197 10197 10198 10198 10199 10199 10199 10200 10200 10201 10201 10201 10201 10202 10202 10202 10201 10201
10106 10106 10106 10106 10106 10106 10106 10107 10107 10108 10109 10110 10110 10111 10112 10113 10115 10117 10118 10120 10122 10123 10125 10127 10129 10132 10134 10137 10139 10141 10143 10146 10148 10150 10152 10155 10157 10160 10163 10164 10165 10165 10166 10168 10170 10172 10173 10175 10176 10178 10179 10181 10182 10183 10184 10185 10186 10187 10188 10189 10189 10190 10190 10191 10191 10192 10192 10192 10193 10194 10194 10195 10195 10196 10197 10197 10198 10198 10198 10199 10199 10199 10199 10199 10199
10103 10103 10102 10102 10102 10103 10103 10103 10104 10104 10105 10106 10107 10107 10108 10109 10111 10113 10114 10116 10118 10119 10121 10123 10126 10128 10130 10132 10134 10136 10139 10141 10143 10145 10147 10150 10152 10155 10156 10158 10158 10159 10161 10164 10165 10167 10168 10170 10172 10173 10174 10176 10177 10178 10179 10180 10181 10182 10183 10184 10185 10185 10186 10186 10187 10187 10188 10188 10189 10190 10190 10191 10192 10193 10193 10194 10195 10195 10196 10196 10196 10197 10196 10196 10196
10100 10100 10100 10099 10099 10100 10100 10100 10101 10101 10102 10102 10103 10104 10105 10106 10107 10109 10110 10112 10114 10116 10118 10120 10122 10124 10126 10128 10130 10132 10134 10136 10138 10140 10142 10145 10147 10149 10150 10151 10153 10155 10157 10159 10160 10162 10164 10165 10167 10168 10170 10171 10172 10173 10174 10175 10176 10177 10178 10179 10180 10181 10181 10182 10182 10183 10184 10184 10185 10186 10186 10187 10188 10189 10190 10191 10192 10192 10193 10194 10194 10194 10194 10194 10194
10098 10098 10098 10097 10097 10097 10097 10098 10098 10098 10099 10100 10100 10101 10102 10103 10104 10105 10107 10108 10110 10112 10114 10116 10118 10120 10121 10123 10125 10127 10129 10131 10133 10135 10137 10139 10141 10143 10144 10146 10148 10150 10152 10154 10156 10157 10159 10160 10162 10163 10164 10165 10167 10168 10169 10170 10171 10172 10173 10174 10175 10176 10177 10177 10178 10179 10179 10180 10181 10182 10183 10184 10185 10186 10187 10188 10189 10190 10190 10191 10191 10191 10192 10192 10191